Location: Unspecified
(0.0000°N, 0.0000°E)
Time: 17:15:01
(UTC+00:00)

Tiros 1 - Pass Details

Date: 28 May 2026
Orbit: 618 x 649 km, 48.4° (Epoch: 6 June)

Event Time Altitude Azimuth Distance (km) Brightness Sun altitude
Rises 02:13:11 0° 355° (N) 2,873 - -50.5°
Reaches altitude 10° 02:16:50 10° 25° (NNE) 1,968 - -49.8°
Maximum altitude 02:18:42 12° 50° (NE) 1,817 - -49.4°
Drops below altitude 10° 02:20:34 10° 74° (ENE) 1,969 - -49.0°
Sets 02:24:13 0° 104° (ESE) 2,877 - -48.2°
